Seabourn Quest — C6YZ5 — position and weather

sailwx.info

Track history (hours):
 
Tides and Currents Weather Stations Pressure Air Temp Water Temp Dewpoint Dewpoint Depression Visibility Wind Speed Wind Dir Waves Ship Positions

Seabourn Quest

Last reported at 2014-Oct-21 02:33 UTC. Time now 2014-Oct-22 07:56 UTC.
Position N 40°27' W 071°41'.

Length 198 m; draft 6.6 m.

Type: Passenger vessel. MMSI: 311038900.

Date/timePositionNaut miles runAvg speedWind from/ knotsBaromVisibWave heightAir tempDewpointWater temp
2014-Oct-21 02:33N 40°27' W 071°41'1212.2
2014-Oct-21 01:33N 40°38' W 071°36'1212.3
2014-Oct-21 00:33N 40°50' W 071°32'1212.3
2014-Oct-20 23:33N 41°02' W 071°26'1212.2
2014-Oct-20 22:33N 41°14' W 071°25'1212.1
2014-Oct-20 21:33N 41°26' W 071°24'4 4.0
2014-Oct-20 20:28N 41°29' W 071°20'0 0.0
2014-Oct-20 19:16N 41°29' W 071°20'0 0.1
2014-Oct-20 18:28N 41°29' W 071°20'0 0.0
2014-Oct-20 17:31N 41°29' W 071°20'0 0.1
2014-Oct-20 16:28N 41°29' W 071°20'0 0.0
2014-Oct-20 15:22N 41°29' W 071°20'0 0.0
2014-Oct-20 14:31N 41°29' W 071°20'0 0.0
2014-Oct-20 13:30N 41°29' W 071°20'0 0.0
2014-Oct-20 12:30N 41°29' W 071°20'0 0.1
2014-Oct-20 11:33N 41°29' W 071°20'6 5.5
2014-Oct-20 10:33N 41°24' W 071°22'5 5.1
2014-Oct-20 09:33N 41°20' W 071°17'8 8.4
2014-Oct-20 08:33N 41°23' W 071°07'1511.8
2014-Oct-20 07:16N 41°31' W 070°49'45 7.8
2014-Oct-20 01:28N 42°16' W 070°39'18 6.3
2014-Oct-19 22:33N 42°33' W 070°48'3 0.3
2014-Oct-19 11:24N 42°31' W 070°53'5 5.4
2014-Oct-19 10:33N 42°32' W 070°47'  
2014-Oct-12 06:07N 46°29' W 072°14'4 7.3
2014-Oct-12 05:33N 46°26' W 072°18'7 7.3
2014-Oct-12 04:34N 46°23' W 072°27'7 7.0
2014-Oct-12 03:34N 46°18' W 072°35'3311.0
2014-Oct-12 00:33N 45°58' W 073°12'1211.7
2014-Oct-11 23:33N 45°48' W 073°20'1211.6
2014-Oct-11 22:33N 45°38' W 073°29'8 7.9
2014-Oct-11 21:33N 45°30' W 073°33'0 0.0
2014-Oct-11 20:26N 45°30' W 073°33'0 0.0
2014-Oct-11 19:32N 45°30' W 073°33'0 0.0
2014-Oct-11 18:26N 45°30' W 073°33'0 0.0
2014-Oct-11 17:33N 45°30' W 073°33'0 0.0
2014-Oct-11 16:33N 45°30' W 073°33'0 0.0
2014-Oct-11 15:29N 45°30' W 073°33'0 0.0
2014-Oct-11 14:29N 45°30' W 073°33'0 0.0
2014-Oct-11 13:33N 45°30' W 073°33'0 0.0
2014-Oct-11 12:31N 45°30' W 073°33'0 0.0
2014-Oct-11 11:32N 45°30' W 073°33'0 0.0
2014-Oct-11 10:33N 45°30' W 073°33'5 5.0
2014-Oct-11 09:33N 45°35' W 073°30'9 9.1
2014-Oct-11 08:33N 45°43' W 073°26'10 9.6
2014-Oct-11 07:34N 45°51' W 073°17'10 9.9
2014-Oct-11 06:33N 45°60' W 073°11'12 9.3
2014-Oct-11 05:13N 46°08' W 072°57'1811.2
2014-Oct-11 03:33N 46°18' W 072°35'  
Track history (hours):
 
Tides and Currents Weather Stations Pressure Air Temp Water Temp Dewpoint Dewpoint Depression Visibility Wind Speed Wind Dir Waves Ship Positions

Seabourn Quest

Last reported at 2014-Oct-21 02:33 UTC. Time now 2014-Oct-22 07:56 UTC.
Position N 40°27' W 071°41'.

Length 198 m; draft 6.6 m.

Type: Passenger vessel. MMSI: 311038900.

Date/timePositionNaut miles runAvg speedWind from/ knotsBaromVisibWave heightAir tempDewpointWater temp
2014-Oct-21 02:33N 40°27' W 071°41'1212.2
2014-Oct-21 01:33N 40°38' W 071°36'1212.3
2014-Oct-21 00:33N 40°50' W 071°32'1212.3
2014-Oct-20 23:33N 41°02' W 071°26'1212.2
2014-Oct-20 22:33N 41°14' W 071°25'1212.1
2014-Oct-20 21:33N 41°26' W 071°24'4 4.0
2014-Oct-20 20:28N 41°29' W 071°20'0 0.0
2014-Oct-20 19:16N 41°29' W 071°20'0 0.1
2014-Oct-20 18:28N 41°29' W 071°20'0 0.0
2014-Oct-20 17:31N 41°29' W 071°20'0 0.1
2014-Oct-20 16:28N 41°29' W 071°20'0 0.0
2014-Oct-20 15:22N 41°29' W 071°20'0 0.0
2014-Oct-20 14:31N 41°29' W 071°20'0 0.0
2014-Oct-20 13:30N 41°29' W 071°20'0 0.0
2014-Oct-20 12:30N 41°29' W 071°20'0 0.1
2014-Oct-20 11:33N 41°29' W 071°20'6 5.5
2014-Oct-20 10:33N 41°24' W 071°22'5 5.1
2014-Oct-20 09:33N 41°20' W 071°17'8 8.4
2014-Oct-20 08:33N 41°23' W 071°07'1511.8
2014-Oct-20 07:16N 41°31' W 070°49'45 7.8
2014-Oct-20 01:28N 42°16' W 070°39'18 6.3
2014-Oct-19 22:33N 42°33' W 070°48'3 0.3
2014-Oct-19 11:24N 42°31' W 070°53'5 5.4
2014-Oct-19 10:33N 42°32' W 070°47'  
2014-Oct-12 06:07N 46°29' W 072°14'4 7.3
2014-Oct-12 05:33N 46°26' W 072°18'7 7.3
2014-Oct-12 04:34N 46°23' W 072°27'7 7.0
2014-Oct-12 03:34N 46°18' W 072°35'3311.0
2014-Oct-12 00:33N 45°58' W 073°12'1211.7
2014-Oct-11 23:33N 45°48' W 073°20'1211.6
2014-Oct-11 22:33N 45°38' W 073°29'8 7.9
2014-Oct-11 21:33N 45°30' W 073°33'0 0.0
2014-Oct-11 20:26N 45°30' W 073°33'0 0.0
2014-Oct-11 19:32N 45°30' W 073°33'0 0.0
2014-Oct-11 18:26N 45°30' W 073°33'0 0.0
2014-Oct-11 17:33N 45°30' W 073°33'0 0.0
2014-Oct-11 16:33N 45°30' W 073°33'0 0.0
2014-Oct-11 15:29N 45°30' W 073°33'0 0.0
2014-Oct-11 14:29N 45°30' W 073°33'0 0.0
2014-Oct-11 13:33N 45°30' W 073°33'0 0.0
2014-Oct-11 12:31N 45°30' W 073°33'0 0.0
2014-Oct-11 11:32N 45°30' W 073°33'0 0.0
2014-Oct-11 10:33N 45°30' W 073°33'5 5.0
2014-Oct-11 09:33N 45°35' W 073°30'9 9.1
2014-Oct-11 08:33N 45°43' W 073°26'10 9.6
2014-Oct-11 07:34N 45°51' W 073°17'10 9.9
2014-Oct-11 06:33N 45°60' W 073°11'12 9.3
2014-Oct-11 05:13N 46°08' W 072°57'1811.2
2014-Oct-11 03:33N 46°18' W 072°35'  

Dump ship's entire track history